Location: Anuling
(14.1239°N, 120.8922°E)
Time: 04:04:09
(UTC+00:00)

Cosmos 2251 Rocket - Pass Details

Date: 14 January 2026
Orbit: 762 x 787 km, 74.0° (Epoch: 11 February)

Event Time Altitude Azimuth Distance (km) Brightness Sun altitude
Rises 10:02:35 0° 342° (NNW) 3,224 6.7 -4.4°
Reaches altitude 10° 10:04:58 10° 339° (NNW) 2,295 6.0 -5.0°
Maximum altitude 10:10:07 65° 258° (WSW) 835 4.1 -6.1°
Drops below altitude 10° 10:15:15 10° 177° (S) 2,286 6.2 -7.3°
Sets 10:17:37 0° 174° (S) 3,211 6.9 -7.8°
